| time (UTC) | temp C | wind direction | speed KPH | gust KPH | rain 1hr cm | rain 24hr cm | rain mn cm | humidity % | barometer mb |
| 20260507190045 | 32 | 360 | 3.2 | 20.9 | 0.00 | 0.00 | 0.00 | 11 | 976.1 |
| 20260507185544 | 32 | 360 | 14.5 | 20.9 | 0.00 | 0.00 | 0.00 | 11 | 976.2 |
| 20260507185044 | 32 | 159 | 6.4 | 19.3 | 0.00 | 0.00 | 0.00 | 11 | 976.4 |
| 20260507184544 | 32 | 148 | 9.7 | 19.3 | 0.00 | 0.00 | 0.00 | 11 | 976.3 |
| 20260507184048 | 32 | 360 | 4.8 | 16.1 | 0.00 | 0.00 | 0.00 | 11 | 976.4 |
| 20260507183544 | 31 | 360 | 9.7 | 20.9 | 0.00 | 0.00 | 0.00 | 12 | 976.6 |
| 20260507183049 | 31 | 360 | 8.0 | 20.9 | 0.00 | 0.00 | 0.00 | 12 | 976.7 |
| 20260507182544 | 31 | 360 | 11.3 | 20.9 | 0.00 | 0.00 | 0.00 | 11 | 976.6 |
| 20260507182044 | 32 | 360 | 8.0 | 20.9 | 0.00 | 0.00 | 0.00 | 11 | 976.7 |
| 20260507181545 | 31 | 360 | 6.4 | 19.3 | 0.00 | 0.00 | 0.00 | 11 | 976.8 |
| 20260507181045 | 31 | 360 | 8.0 | 20.9 | 0.00 | 0.00 | 0.00 | 11 | 977.0 |
| 20260507180544 | 31 | 360 | 8.0 | 17.7 | 0.00 | 0.00 | 0.00 | 12 | 976.9 |
| 20260507180053 | 31 | 360 | 6.4 | 16.1 | 0.00 | 0.00 | 0.00 | 11 | 976.9 |
| 20260507175544 | 30 | 360 | 4.8 | 20.9 | 0.00 | 0.00 | 0.00 | 11 | 977.0 |
| 20260507175045 | 30 | 360 | 6.4 | 20.9 | 0.00 | 0.00 | 0.00 | 11 | 977.1 |
| 20260507174546 | 30 | 360 | 11.3 | 20.9 | 0.00 | 0.00 | 0.00 | 12 | 977.0 |
| 20260507174048 | 30 | 360 | 6.4 | 20.9 | 0.00 | 0.00 | 0.00 | 10 | 977.1 |
| 20260507173544 | 30 | 360 | 6.4 | 20.9 | 0.00 | 0.00 | 0.00 | 11 | 977.2 |
| 20260507173048 | 30 | 360 | 12.9 | 20.9 | 0.00 | 0.00 | 0.00 | 10 | 977.3 |
| 20260507172544 | 30 | 360 | 8.0 | 17.7 | 0.00 | 0.00 | 0.00 | 10 | 977.3 |
| 20260507172044 | 29 | 360 | 4.8 | 17.7 | 0.00 | 0.00 | 0.00 | 10 | 977.5 |
| 20260507171600 | 29 | 360 | 8.0 | 17.7 | 0.00 | 0.00 | 0.00 | 12 | 977.6 |
| 20260507171044 | 29 | 360 | 9.7 | 20.9 | 0.00 | 0.00 | 0.00 | 12 | 977.7 |
| 20260507170545 | 30 | 360 | 4.8 | 16.1 | 0.00 | 0.00 | 0.00 | 14 | 977.7 |
| 20260507170045 | 30 | 360 | 8.0 | 16.1 | 0.00 | 0.00 | 0.00 | 16 | 977.7 |
| 20260507165545 | 29 | 360 | 0.0 | 16.1 | 0.00 | 0.00 | 0.00 | 15 | 977.5 |
| 20260507165045 | 29 | 360 | 9.7 | 16.1 | 0.00 | 0.00 | 0.00 | 15 | 977.7 |
| 20260507164549 | 28 | 360 | 4.8 | 16.1 | 0.00 | 0.00 | 0.00 | 15 | 977.8 |
| 20260507164044 | 28 | 360 | 8.0 | 19.3 | 0.00 | 0.00 | 0.00 | 16 | 977.7 |
| 20260507163545 | 28 | 360 | 4.8 | 19.3 | 0.00 | 0.00 | 0.00 | 18 | 977.8 |
| 20260507163049 | 28 | 360 | 6.4 | 14.5 | 0.00 | 0.00 | 0.00 | 20 | 977.9 |
| 20260507162544 | 28 | 360 | 4.8 | 12.9 | 0.00 | 0.00 | 0.00 | 21 | 977.8 |
| 20260507162045 | 27 | 360 | 4.8 | 14.5 | 0.00 | 0.00 | 0.00 | 21 | 977.9 |
| 20260507161545 | 27 | 360 | 6.4 | 14.5 | 0.00 | 0.00 | 0.00 | 21 | 977.9 |
| 20260507161044 | 26 | 360 | 0.0 | 6.4 | 0.00 | 0.00 | 0.00 | 23 | 977.9 |
| 20260507160543 | 26 | 360 | 3.2 | 8.0 | 0.00 | 0.00 | 0.00 | 25 | 978.1 |
| 20260507160051 | 26 | 360 | 1.6 | 9.7 | 0.00 | 0.00 | 0.00 | 26 | 978.0 |
| 20260507155544 | 26 | 360 | 4.8 | 9.7 | 0.00 | 0.00 | 0.00 | 25 | 978.1 |
| 20260507155044 | 26 | 360 | 6.4 | 9.7 | 0.00 | 0.00 | 0.00 | 24 | 978.1 |
| 20260507154544 | 25 | 360 | 4.8 | 8.0 | 0.00 | 0.00 | 0.00 | 24 | 978.1 |
| 20260507154045 | 26 | 360 | 4.8 | 12.9 | 0.00 | 0.00 | 0.00 | 27 | 978.1 |
| 20260507153545 | 25 | 360 | 4.8 | 12.9 | 0.00 | 0.00 | 0.00 | 25 | 978.2 |
| 20260507153046 | 25 | 360 | 0.0 | 0.0 | 0.00 | 0.00 | 0.00 | 27 | 978.2 |
| 20260507152544 | 25 | 360 | 0.0 | 1.6 | 0.00 | 0.00 | 0.00 | 27 | 978.2 |
| 20260507152044 | 25 | 31 | 0.0 | 1.6 | 0.00 | 0.00 | 0.00 | 28 | 978.2 |
| 20260507151548 | 24 | 360 | 0.0 | 3.2 | 0.00 | 0.00 | 0.00 | 29 | 978.1 |
| 20260507151044 | 24 | 360 | 0.0 | 3.2 | 0.00 | 0.00 | 0.00 | 29 | 978.1 |
| 20260507150544 | 23 | 360 | 0.0 | 4.8 | 0.00 | 0.00 | 0.00 | 30 | 978.1 |
| 20260507150044 | 23 | 360 | 1.6 | 6.4 | 0.00 | 0.00 | 0.00 | 31 | 978.1 |
| 20260507145544 | 23 | 360 | 3.2 | 6.4 | 0.00 | 0.00 | 0.00 | 30 | 978.1 |
| 20260507145044 | 23 | 360 | 1.6 | 4.8 | 0.00 | 0.00 | 0.00 | 30 | 978.0 |
| 20260507144546 | 23 | 360 | 1.6 | 6.4 | 0.00 | 0.00 | 0.00 | 30 | 978.3 |
| 20260507144044 | 23 | 360 | 3.2 | 8.0 | 0.00 | 0.00 | 0.00 | 29 | 978.3 |
| 20260507143544 | 23 | 360 | 4.8 | 8.0 | 0.00 | 0.00 | 0.00 | 29 | 978.2 |
| 20260507143049 | 23 | 360 | 3.2 | 4.8 | 0.00 | 0.00 | 0.00 | 31 | 978.2 |
| 20260507142545 | 22 | 360 | 1.6 | 4.8 | 0.00 | 0.00 | 0.00 | 27 | 978.2 |
| 20260507142044 | 22 | 360 | 3.2 | 6.4 | 0.00 | 0.00 | 0.00 | 27 | 978.1 |
| 20260507141546 | 22 | 360 | 3.2 | 6.4 | 0.00 | 0.00 | 0.00 | 27 | 978.1 |
| 20260507141044 | 22 | 360 | 1.6 | 3.2 | 0.00 | 0.00 | 0.00 | 27 | 978.0 |
| 20260507140545 | 22 | 360 | 1.6 | 6.4 | 0.00 | 0.00 | 0.00 | 28 | 978.0 |
| 20260507140055 | 21 | 360 | 3.2 | 6.4 | 0.00 | 0.00 | 0.00 | 28 | 978.0 |
| 20260507135544 | 21 | 360 | 3.2 | 6.4 | 0.00 | 0.00 | 0.00 | 28 | 978.0 |
| 20260507135044 | 21 | 360 | 0.0 | 8.0 | 0.00 | 0.00 | 0.00 | 29 | 978.0 |
| 20260507134544 | 20 | 360 | 3.2 | 8.0 | 0.00 | 0.00 | 0.00 | 29 | 978.0 |
| 20260507134044 | 20 | 360 | 4.8 | 6.4 | 0.00 | 0.00 | 0.00 | 29 | 977.9 |
| 20260507133544 | 20 | 360 | 4.8 | 9.7 | 0.00 | 0.00 | 0.00 | 28 | 977.9 |
| 20260507133044 | 20 | 360 | 6.4 | 9.7 | 0.00 | 0.00 | 0.00 | 29 | 977.9 |
| 20260507132544 | 20 | 360 | 0.0 | 1.6 | 0.00 | 0.00 | 0.00 | 29 | 977.8 |
| 20260507132044 | 20 | 360 | 0.0 | 0.0 | 0.00 | 0.00 | 0.00 | 30 | 977.8 |
| 20260507131546 | 20 | 360 | 0.0 | 3.2 | 0.00 | 0.00 | 0.00 | 30 | 977.7 |
| 20260507131044 | 20 | 360 | 1.6 | 3.2 | 0.00 | 0.00 | 0.00 | 30 | 977.8 |
| 20260507130544 | 20 | 360 | 1.6 | 8.0 | 0.00 | 0.00 | 0.00 | 30 | 977.8 |
| 20260507130058 | 20 | 360 | 1.6 | 8.0 | 0.00 | 0.00 | 0.00 | 30 | 977.7 |
| 20260507125544 | 20 | 360 | 3.2 | 6.4 | 0.00 | 0.00 | 0.00 | 30 | 977.7 |
| 20260507125044 | 20 | 360 | 0.0 | 0.0 | 0.00 | 0.00 | 0.00 | 30 | 977.7 |
| 20260507124559 | 20 | 360 | 0.0 | 0.0 | 0.00 | 0.00 | 0.00 | 30 | 977.6 |
| 20260507124044 | 20 | 360 | 0.0 | 0.0 | 0.00 | 0.00 | 0.00 | 30 | 977.7 |
| 20260507123544 | 20 | 360 | 0.0 | 0.0 | 0.00 | 0.00 | 0.00 | 30 | 977.7 |
| 20260507123044 | 20 | 360 | 0.0 | 0.0 | 0.00 | 0.00 | 0.00 | 30 | 977.6 |
| 20260507122545 | 20 | 360 | 0.0 | 1.6 | 0.00 | 0.00 | 0.00 | 30 | 977.7 |
| 20260507122044 | 20 | 360 | 0.0 | 8.0 | 0.00 | 0.00 | 0.00 | 30 | 977.7 |
| 20260507121545 | 20 | 360 | 1.6 | 8.0 | 0.00 | 0.00 | 0.00 | 30 | 977.7 |
| 20260507121043 | 20 | 360 | 3.2 | 8.0 | 0.00 | 0.00 | 0.00 | 30 | 977.6 |
| 20260507120544 | 20 | 360 | 4.8 | 8.0 | 0.00 | 0.00 | 0.00 | 30 | 977.5 |
| 20260507120044 | 20 | 360 | 1.6 | 8.0 | 0.00 | 0.00 | 0.00 | 30 | 977.6 |
| 20260507115545 | 20 | 360 | 3.2 | 8.0 | 0.00 | 0.00 | 0.00 | 30 | 977.6 |
| 20260507115043 | 20 | 360 | 3.2 | 6.4 | 0.00 | 0.00 | 0.00 | 31 | 977.6 |
| 20260507114605 | 20 | 360 | 3.2 | 9.7 | 0.00 | 0.00 | 0.00 | 30 | 977.7 |
| 20260507114045 | 20 | 360 | 6.4 | 9.7 | 0.00 | 0.00 | 0.00 | 30 | 977.7 |
| 20260507113545 | 20 | 360 | 4.8 | 9.7 | 0.00 | 0.00 | 0.00 | 30 | 977.6 |
| 20260507113044 | 20 | 360 | 6.4 | 9.7 | 0.00 | 0.00 | 0.00 | 30 | 977.7 |
| 20260507112545 | 20 | 360 | 4.8 | 8.0 | 0.00 | 0.00 | 0.00 | 30 | 977.8 |
| 20260507112047 | 20 | 360 | 3.2 | 6.4 | 0.00 | 0.00 | 0.00 | 29 | 977.7 |
| 20260507111544 | 20 | 360 | 4.8 | 9.7 | 0.00 | 0.00 | 0.00 | 30 | 977.7 |
| 20260507111045 | 20 | 360 | 3.2 | 9.7 | 0.00 | 0.00 | 0.00 | 30 | 977.7 |
| 20260507110544 | 20 | 360 | 3.2 | 4.8 | 0.00 | 0.00 | 0.00 | 28 | 977.7 |
| 20260507110047 | 20 | 360 | 0.0 | 4.8 | 0.00 | 0.00 | 0.00 | 29 | 977.8 |
| 20260507105543 | 20 | 360 | 1.6 | 3.2 | 0.00 | 0.00 | 0.00 | 29 | 977.8 |
| 20260507105044 | 20 | 360 | 1.6 | 4.8 | 0.00 | 0.00 | 0.00 | 30 | 978.0 |
| 20260507104551 | 20 | 360 | 3.2 | 4.8 | 0.00 | 0.00 | 0.00 | 30 | 977.9 |
| 20260507104044 | 19 | 360 | 1.6 | 4.8 | 0.00 | 0.00 | 0.00 | 31 | 978.0 |
| 20260507103545 | 19 | 360 | 0.0 | 4.8 | 0.00 | 0.00 | 0.00 | 32 | 978.0 |
| 20260507103044 | 19 | 360 | 1.6 | 4.8 | 0.00 | 0.00 | 0.00 | 32 | 977.9 |
| 20260507102545 | 19 | 360 | 0.0 | 4.8 | 0.00 | 0.00 | 0.00 | 33 | 978.1 |
| 20260507102044 | 19 | 360 | 1.6 | 4.8 | 0.00 | 0.00 | 0.00 | 33 | 978.0 |
| 20260507101548 | 19 | 360 | 0.0 | 6.4 | 0.00 | 0.00 | 0.00 | 32 | 978.1 |
| 20260507101043 | 19 | 360 | 1.6 | 4.8 | 0.00 | 0.00 | 0.00 | 32 | 978.1 |
| 20260507100544 | 20 | 360 | 1.6 | 6.4 | 0.00 | 0.00 | 0.00 | 32 | 978.0 |
| 20260507100046 | 20 | 360 | 1.6 | 6.4 | 0.00 | 0.00 | 0.00 | 31 | 978.1 |
| 20260507095544 | 20 | 360 | 3.2 | 6.4 | 0.00 | 0.00 | 0.00 | 32 | 978.1 |
| 20260507095043 | 20 | 360 | 1.6 | 12.9 | 0.00 | 0.00 | 0.00 | 32 | 978.1 |
| 20260507094545 | 20 | 360 | 4.8 | 14.5 | 0.00 | 0.00 | 0.00 | 31 | 978.2 |
| 20260507094048 | 20 | 360 | 8.0 | 16.1 | 0.00 | 0.00 | 0.00 | 30 | 978.1 |
| 20260507093547 | 20 | 360 | 4.8 | 9.7 | 0.00 | 0.00 | 0.00 | 29 | 978.1 |
| 20260507093045 | 20 | 360 | 3.2 | 8.0 | 0.00 | 0.00 | 0.00 | 29 | 977.9 |
| 20260507092544 | 20 | 360 | 4.8 | 9.7 | 0.00 | 0.00 | 0.00 | 30 | 977.9 |
| 20260507092044 | 20 | 360 | 4.8 | 12.9 | 0.00 | 0.00 | 0.00 | 30 | 977.9 |
| 20260507091545 | 20 | 360 | 6.4 | 12.9 | 0.00 | 0.00 | 0.00 | 31 | 977.9 |
| 20260507091044 | 20 | 360 | 8.0 | 16.1 | 0.00 | 0.00 | 0.00 | 31 | 977.9 |
| 20260507090544 | 20 | 360 | 8.0 | 16.1 | 0.00 | 0.00 | 0.00 | 32 | 978.0 |
| 20260507090045 | 20 | 360 | 6.4 | 9.7 | 0.00 | 0.00 | 0.00 | 31 | 977.9 |
| 20260507085546 | 21 | 360 | 4.8 | 9.7 | 0.00 | 0.00 | 0.00 | 33 | 978.0 |
| 20260507085044 | 21 | 360 | 6.4 | 9.7 | 0.00 | 0.00 | 0.00 | 32 | 978.1 |
| 20260507084544 | 21 | 360 | 4.8 | 9.7 | 0.00 | 0.00 | 0.00 | 32 | 978.1 |
| 20260507084044 | 21 | 360 | 3.2 | 9.7 | 0.00 | 0.00 | 0.00 | 31 | 978.1 |
| 20260507083546 | 22 | 360 | 4.8 | 9.7 | 0.00 | 0.00 | 0.00 | 29 | 978.1 |
| 20260507083044 | 22 | 360 | 6.4 | 9.7 | 0.00 | 0.00 | 0.00 | 29 | 978.0 |
| 20260507082544 | 23 | 360 | 4.8 | 9.7 | 0.00 | 0.00 | 0.00 | 26 | 978.0 |
| 20260507082044 | 24 | 360 | 4.8 | 16.1 | 0.00 | 0.00 | 0.00 | 24 | 978.0 |
| 20260507081544 | 24 | 360 | 3.2 | 17.7 | 0.00 | 0.00 | 0.00 | 24 | 978.0 |
| 20260507081044 | 24 | 360 | 9.7 | 17.7 | 0.00 | 0.00 | 0.00 | 21 | 978.1 |
| 20260507080544 | 24 | 360 | 8.0 | 16.1 | 0.00 | 0.00 | 0.00 | 21 | 978.1 |
| 20260507080044 | 24 | 360 | 6.4 | 16.1 | 0.00 | 0.00 | 0.00 | 21 | 978.2 |
| 20260507075544 | 24 | 360 | 8.0 | 16.1 | 0.00 | 0.00 | 0.00 | 21 | 978.2 |
| 20260507075046 | 24 | 360 | 6.4 | 16.1 | 0.00 | 0.00 | 0.00 | 21 | 978.2 |
| 20260507074559 | 24 | 360 | 6.4 | 16.1 | 0.00 | 0.00 | 0.00 | 21 | 978.2 |
| 20260507074044 | 24 | 360 | 9.7 | 19.3 | 0.00 | 0.00 | 0.00 | 21 | 978.2 |
| 20260507073548 | 24 | 360 | 8.0 | 19.3 | 0.00 | 0.00 | 0.00 | 21 | 978.2 |
| 20260507073047 | 23 | 360 | 9.7 | 17.7 | 0.00 | 0.00 | 0.00 | 22 | 978.3 |
| 20260507072544 | 23 | 360 | 4.8 | 12.9 | 0.00 | 0.00 | 0.00 | 24 | 978.3 |
| 20260507072043 | 23 | 360 | 4.8 | 14.5 | 0.00 | 0.00 | 0.00 | 23 | 978.3 |
| 20260507071550 | 23 | 360 | 6.4 | 14.5 | 0.00 | 0.00 | 0.00 | 24 | 978.3 |
| 20260507071044 | 23 | 360 | 8.0 | 14.5 | 0.00 | 0.00 | 0.00 | 23 | 978.3 |
| 20260507070544 | 24 | 360 | 8.0 | 14.5 | 0.00 | 0.00 | 0.00 | 23 | 978.3 |
| 20260507070059 | 25 | 360 | 6.4 | 19.3 | 0.00 | 0.00 | 0.00 | 22 | 978.3 |
| 20260507065544 | 25 | 360 | 9.7 | 19.3 | 0.00 | 0.00 | 0.00 | 20 | 978.3 |
| 20260507065045 | 25 | 360 | 12.9 | 17.7 | 0.00 | 0.00 | 0.00 | 20 | 978.3 |
| 20260507064544 | 25 | 360 | 9.7 | 19.3 | 0.00 | 0.00 | 0.00 | 20 | 978.3 |
| 20260507064044 | 25 | 360 | 9.7 | 19.3 | 0.00 | 0.00 | 0.00 | 20 | 978.3 |
| 20260507063545 | 25 | 360 | 9.7 | 19.3 | 0.00 | 0.00 | 0.00 | 20 | 978.4 |
| 20260507063055 | 25 | 360 | 9.7 | 17.7 | 0.00 | 0.00 | 0.00 | 20 | 978.4 |
| 20260507062544 | 25 | 360 | 8.0 | 16.1 | 0.00 | 0.00 | 0.00 | 20 | 978.4 |
| 20260507062044 | 25 | 360 | 9.7 | 17.7 | 0.00 | 0.00 | 0.00 | 20 | 978.3 |
| 20260507061547 | 25 | 360 | 9.7 | 20.9 | 0.00 | 0.00 | 0.00 | 20 | 978.3 |
| 20260507061043 | 25 | 360 | 11.3 | 20.9 | 0.00 | 0.00 | 0.00 | 20 | 978.3 |
| 20260507060547 | 25 | 360 | 9.7 | 17.7 | 0.00 | 0.00 | 0.00 | 20 | 978.3 |
| 20260507060046 | 25 | 360 | 9.7 | 17.7 | 0.00 | 0.00 | 0.00 | 20 | 978.4 |
| 20260507055545 | 25 | 360 | 9.7 | 19.3 | 0.00 | 0.00 | 0.00 | 20 | 978.4 |
| 20260507055044 | 26 | 360 | 9.7 | 17.7 | 0.00 | 0.00 | 0.00 | 20 | 978.3 |
| 20260507054545 | 26 | 360 | 9.7 | 19.3 | 0.00 | 0.00 | 0.00 | 20 | 978.3 |
| 20260507054045 | 26 | 360 | 11.3 | 19.3 | 0.00 | 0.00 | 0.00 | 20 | 978.3 |
| 20260507053544 | 26 | 360 | 9.7 | 16.1 | 0.00 | 0.00 | 0.00 | 20 | 978.3 |
| 20260507053044 | 25 | 360 | 11.3 | 17.7 | 0.00 | 0.00 | 0.00 | 20 | 978.3 |
| 20260507052548 | 25 | 360 | 8.0 | 17.7 | 0.00 | 0.00 | 0.00 | 20 | 978.3 |
| 20260507052044 | 26 | 360 | 11.3 | 16.1 | 0.00 | 0.00 | 0.00 | 20 | 978.3 |
| 20260507051544 | 26 | 360 | 8.0 | 14.5 | 0.00 | 0.00 | 0.00 | 20 | 978.2 |
| 20260507051043 | 26 | 360 | 6.4 | 17.7 | 0.00 | 0.00 | 0.00 | 20 | 978.2 |
| 20260507050544 | 26 | 360 | 6.4 | 17.7 | 0.00 | 0.00 | 0.00 | 20 | 978.1 |
| 20260507050044 | 26 | 360 | 4.8 | 14.5 | 0.00 | 0.00 | 0.00 | 20 | 978.1 |
| 20260507045544 | 26 | 360 | 6.4 | 14.5 | 0.00 | 0.00 | 0.00 | 20 | 978.1 |
| 20260507045044 | 26 | 360 | 9.7 | 14.5 | 0.00 | 0.00 | 0.00 | 20 | 978.0 |
| 20260507044545 | 26 | 360 | 9.7 | 14.5 | 0.00 | 0.00 | 0.00 | 20 | 978.1 |
| 20260507044047 | 26 | 360 | 6.4 | 14.5 | 0.00 | 0.00 | 0.00 | 20 | 978.1 |
| 20260507043544 | 26 | 360 | 6.4 | 12.9 | 0.00 | 0.00 | 0.00 | 20 | 978.1 |
| 20260507043044 | 26 | 360 | 4.8 | 12.9 | 0.00 | 0.00 | 0.00 | 20 | 978.0 |
| 20260507042544 | 26 | 360 | 4.8 | 14.5 | 0.00 | 0.00 | 0.00 | 20 | 978.0 |
| 20260507042044 | 26 | 360 | 8.0 | 16.1 | 0.00 | 0.00 | 0.00 | 20 | 977.9 |
| 20260507041544 | 26 | 360 | 9.7 | 16.1 | 0.00 | 0.00 | 0.00 | 20 | 977.9 |
| 20260507041044 | 26 | 360 | 6.4 | 17.7 | 0.00 | 0.00 | 0.00 | 20 | 977.9 |
| 20260507040546 | 26 | 360 | 9.7 | 19.3 | 0.00 | 0.00 | 0.00 | 20 | 977.9 |
| 20260507040044 | 26 | 360 | 11.3 | 19.3 | 0.00 | 0.00 | 0.00 | 20 | 977.9 |
| 20260507035544 | 26 | 360 | 11.3 | 19.3 | 0.00 | 0.00 | 0.00 | 20 | 977.7 |
| 20260507035045 | 26 | 360 | 9.7 | 16.1 | 0.00 | 0.00 | 0.00 | 19 | 977.7 |
| 20260507034544 | 26 | 360 | 6.4 | 16.1 | 0.00 | 0.00 | 0.00 | 19 | 977.6 |
| 20260507034044 | 26 | 360 | 6.4 | 16.1 | 0.00 | 0.00 | 0.00 | 19 | 977.5 |
| 20260507033544 | 26 | 360 | 8.0 | 12.9 | 0.00 | 0.00 | 0.00 | 19 | 977.4 |
| 20260507033046 | 27 | 360 | 6.4 | 12.9 | 0.00 | 0.00 | 0.00 | 19 | 977.4 |